CAPE
7 0 0 3 4 6 6 22 12 9 8 14 12 11 6 6 2 0 0 0 0 1 0 7 19 16 8 12 0 0 0 0 0 0 0 0 0 0 1 2 0 0 0 0 1 0 0 0 0 0 0 0 0 0
5 0 3 4 3 6 10 18 15 9 12 6 19 5 14 4 7 2 0 0 0 1 0 0 5 3 17 15 6 0 0 0 1 1 0 0 0 0 0 3 0 0 0 0 0 0 0 0 0 0 0 0 0 0
1 0 8 8 4 8 7 18 15 14 15 5 6 7 7 3 3 4 0 0 0 2 0 9 24 18 6 3 0 1 0 0 0 3 2 3 0 0 0 1 13 0 0 2 0 0 0 0 0 0 0 0 0 0
0 0 8 10 3 7 7 20 4 13 18 11 7 12 12 4 9 8 0 0 0 1 0 9 1 1 0 0 0 0 0 0 0 0 1 0 1 2 5 4 5 0 0 0 0 0 0 0 0 0 0 0 0 0
0 0 7 12 6 4 17 24 3 11 10 21 26 18 20 24 24 1 0 0 0 0 0 0 0 0 0 0 0 0 0 0 0 5 2 8 2 0 0 0 0 0 0 0 0 0 0 0 0 0 0 0 0 0
0 0 7 12 5 4 20 16 2 5 13 25 15 30 32 20 25 0 0 0 0 0 1 1 0 0 0 0 0 2 1 6 3 8 4 3 4 14 5 1 0 0 0 0 0 0 0 0 0 0 0 0 0 0
0 2 17 8 3 10 28 6 3 4 17 8 6 18 23 21 7 0 1 0 0 0 0 0 0 0 0 0 0 0 3 0 1 1 0 4 23 14 3 1 0 0 0 0 0 0 0 0 0 0 0 0 0 0
2 11 14 5 3 13 13 1 2 10 3 0 2 16 7 3 0 0 0 0 0 2 1 1 0 0 0 5 4 0 6 2 1 2 7 5 3 0 2 0 0 0 0 0 0 0 0 0 0 0 0 0 0 0
10 9 10 9 4 19 3 5 5 4 0 0 0 10 1 0 1 1 0 0 0 1 1 0 0 0 0 0 8 2 1 2 2 2 1 2 2 2 0 0 0 0 0 0 0 0 0 0 0 0 0 0 0 0
7 3 7 8 4 18 2 2 5 0 0 0 0 1 0 1 0 0 0 0 0 1 0 2 1 2 1 6 6 10 0 1 0 0 0 2 0 0 0 0 0 0 0 0 0 0 0 0 0 0 0 0 0 0
3 5 6 7 15 6 3 4 3 0 0 0 0 0 0 0 0 0 1 1 1 1 3 4 0 1 0 0 1 0 0 0 0 0 0 0 0 0 0 0 0 0 0 0 0 0 0 0 0 0 0 0 0 0
26 9 8 11 14 3 4 3 0 0 0 0 0 0 0 0 0 0 0 0 1 1 0 1 0 0 0 0 0 0 0 0 0 0 0 0 0 0 0 0 0 0 0 0 0 0 0 0 0 0 0 0 0 0
5 8 15 10 12 1 0 1 0 0 0 0 1 1 0 0 1 0 1 0 2 0 0 0 0 0 0 0 0 0 1 0 0 0 0 0 0 0 0 0 0 0 0 0 0 0 0 0 0 0 0 0 0 0
6 12 4 9 11 0 0 0 0 0 0 0 0 0 0 0 0 0 0 0 1 0 0 0 0 1 0 0 0 0 0 0 0 0 0 0 0 0 0 0 0 0 0 0 0 0 0 0 0 0 0 0 0 0
3 8 5 7 3 0 0 0 0 0 0 0 0 0 0 0 0 0 0 0 0 0 0 0 0 0 0 0 0 0 0 0 0 1 0 0 0 0 0 0 0 0 0 0 0 0 0 0 0 0 0 0 0 0
14 3 3 9 5 0 0 0 0 0 0 0 0 0 0 1 0 0 0 1 0 0 0 0 0 0 0 0 0 0 0 0 0 0 0 0 0 0 0 0 0 0 0 0 0 0 0 0 0 0 0 0 0 0
7 1 3 3 0 0 0 0 0 0 0 0 0 0 0 0 0 0 0 0 0 0 0 0 1 0 0 0 0 0 1 0 0 0 0 0 0 0 0 0 0 0 0 0 0 0 0 0 0 0 0 0 0 0
4 2 3 1 0 0 0 0 0 0 0 0 0 0 0 0 0 0 0 0 0 0 1 0 0 0 0 1 0 0 0 0 0 0 0 0 0 0 0 0 0 0 0 0 0 0 0 0 0 0 0 0 0 0
3 3 4 5 0 0 0 0 0 0 0 0 0 0 0 0 0 0 0 0 0 0 0 1 0 0 0 0 0 0 0 0 0 0 0 0 0 0 0 0 0 0 0 0 0 0 0 0 0 0 0 0 0 0
6 6 6 0 0 0 0 0 0 0 0 0 0 0 0 0 0 0 0 0 0 0 0 0 0 0 0 0 0 0 0 0 0 0 0 0 0 0 0 1 1 0 0 0 0 0 0 0 0 0 0 0 0 0
0 1 0 0 0 0 0 0 0 0 0 0 0 0 0 0 1 0 0 0 0 0 0 0 0 0 0 0 0 0 0 0 0 0 0 0 0 0 1 0 0 0 0 0 0 0 0 0 0 0 0 0 0 0
1 1 0 0 0 0 0 0 0 0 0 0 0 0 0 0 0 0 0 1 0 0 0 0 0 0 0 0 0 0 0 0 0 0 0 0 0 0 0 0 2 3 0 1 1 0 0 0 0 0 0 0 0 0
0 0 0 0 0 0 0 0 0 0 0 0 0 0 0 0 0 0 0 0 0 0 0 0 0 0 0 0 0 0 0 0 0 0 0 0 0 0 0 0 0 0 1 1 0 0 0 0 0 0 0 0 0 0
0 0 0 0 0 0 0 0 0 0 0 0 0 0 0 0 0 0 0 0 0 0 0 0 0 0 0 0 0 0 0 0 0 0 0 0 0 0 0 0 0 0 0 0 0 0 0 0 0 0 0 0 0 0
0 0 0 0 0 0 0 0 0 0 0 0 0 0 0 0 0 0 0 0 0 0 0 0 0 0 0 0 0 0 0 0 0 0 0 0 0 0 0 0 0 0 0 0 2 1 0 0 0 0 0 0 0 0
0 0 0 0 0 0 0 0 0 0 0 0 0 0 0 0 0 0 0 0 0 0 0 0 0 0 0 0 0 0 0 0 0 0 0 0 0 0 0 0 0 0 0 0 0 1 0 0 0 0 0 0 0 0
0 0 0 0 0 0 0 0 0 0 0 0 0 0 0 0 0 0 0 0 0 0 0 0 0 0 0 0 0 0 0 0 0 0 0 0 0 0 0 0 0 0 0 0 0 0 0 0 0 0 0 0 0 0
0 0 0 0 0 0 0 0 0 0 0 0 0 0 0 0 0 0 0 0 0 0 0 0 0 0 0 0 0 0 0 0 0 0 0 0 0 0 0 0 0 0 0 0 0 0 0 0 0 0 0 0 0 0
0 0 0 0 0 0 0 0 0 0 0 0 0 0 0 0 0 0 0 0 0 0 0 0 0 0 0 0 0 0 0 0 0 0 0 0 0 0 0 0 0 0 0 0 0 1 0 0 0 0 0 0 0 0
0 0 0 0 0 0 0 0 0 0 0 0 0 0 0 0 0 0 0 0 0 0 0 0 0 0 0 0 0 0 0 0 0 0 0 0 0 0 0 0 0 0 0 0 0 0 0 3 0 0 0 0 0 0
0 0 0 0 0 0 0 0 0 0 0 0 0 0 0 0 0 0 0 0 0 0 0 0 0 0 0 0 0 0 0 0 0 0 0 0 0 0 0 0 0 0 0 0 0 0 0 0 0 0 0 0 0 0
0 0 0 0 0 0 0 0 0 0 0 0 0 0 0 0 0 0 0 0 0 0 0 0 0 0 0 0 0 0 0 0 0 0 0 0 0 0 0 0 0 0 0 0 0 0 0 0 0 0 0 0 0 0
0 0 0 0 0 0 0 0 0 0 0 0 0 0 0 0 0 0 0 0 0 0 0 0 0 0 0 0 0 0 0 0 0 1 1 1 1 3 0 0 0 0 0 0 0 0 0 0 0 0 0 0 0 0
CIN
0 0 0 0 0 0 0 0 -1 0 0 0 0 0 0 0 0 0 0 0 0 0 0 -31 -13 -5 -6 -7 -2 0 -2 0 0 -1 -1 0 0 -2 -4 -6 0 0 0 -2 -1 -1 0 0 0 0 0 0 0 0
0 0 0 0 0 0 0 -1 -1 -2 0 0 0 0 0 -1 0 0 0 0 0 0 0 -4 -45 -44 -38 -25 -18 0 -4 0 -8 -3 -1 0 0 0 0 -2 0 0 0 0 0 0 0 0 0 0 0 0 0 0
-1 0 0 0 0 0 0 -1 -1 -2 -2 -1 0 0 -1 -1 -2 0 0 0 0 0 0 -21 -17 -37 -76 -58 -60 -8 0 0 0 -28 -4 -7 0 0 0 -2 -4 0 0 -1 0 0 0 0 0 0 0 0 0 0
0 0 0 0 0 0 -1 0 -1 -2 -1 0 -1 -1 0 -1 -1 0 -1 -1 0 0 0 -6 -23 -42 0 0 0 0 0 0 -10 -12 -6 -1 0 -8 -3 -3 -3 -9 -3 0 0 0 0 0 0 0 0 0 0 0
0 0 0 0 0 -1 -1 0 -1 -2 -1 0 0 0 0 -2 -2 0 0 0 0 0 0 0 0 0 0 0 -13 0 0 -4 0 0 -3 -1 -2 0 0 0 0 0 0 -3 0 0 0 0 0 0 0 0 0 0
-10 0 0 0 0 -1 0 0 0 -1 0 0 0 0 0 -2 -5 0 -1 0 0 0 0 -3 -3 0 0 0 0 -7 -4 -4 -7 -2 -1 0 -18 -1 0 -1 0 0 0 0 0 0 0 0 0 0 0 0 0 0
-3 -1 0 0 0 -2 0 0 0 -1 0 0 -11 -8 -2 -7 -5 0 0 0 0 0 0 0 -4 -17 0 0 0 0 0 0 -2 -2 -1 -2 -2 0 -1 0 0 0 0 0 0 0 0 0 0 0 0 0 0 0
-4 -2 0 0 -1 0 0 -1 -1 0 0 0 -14 -5 -3 0 0 0 0 0 0 0 0 -4 0 0 0 -1 -1 0 0 -2 0 0 -2 0 -2 -2 0 0 0 0 0 0 0 0 0 0 0 0 0 0 0 0
-3 -1 0 0 -1 0 0 0 0 0 0 0 0 -6 -1 -1 0 0 0 0 0 0 0 -3 0 -1 0 -4 -2 -2 0 0 0 0 0 -3 0 -1 0 -2 0 0 0 0 0 0 0 0 0 0 0 0 0 0
-10 -1 0 0 -2 0 0 0 0 0 0 0 0 0 0 -2 0 0 0 0 0 0 -1 -4 -20 -6 -11 -4 -2 0 0 -1 0 0 -1 0 0 -3 0 0 0 0 0 0 0 0 0 0 0 0 0 0 0 0
-9 -18 0 0 0 -2 -1 0 0 0 0 0 0 0 0 0 0 0 0 0 0 0 -1 -2 -2 -13 -14 0 -2 -1 0 0 0 0 0 0 0 0 0 0 0 0 0 0 0 0 0 0 0 0 0 0 0 0
-1 -10 -1 0 0 -1 0 0 0 0 0 0 0 0 0 0 -2 -2 0 0 -7 -3 -2 -11 0 -8 0 0 0 0 0 0 0 0 0 0 0 0 0 0 0 0 0 0 0 0 0 0 0 0 0 0 0 0
0 0 0 0 -2 -2 0 0 0 0 0 0 0 0 0 0 -1 -1 -2 -2 0 0 0 0 0 0 0 0 0 0 -1 0 0 0 0 0 0 0 0 0 0 0 0 0 0 0 0 0 0 0 0 0 0 0
0 0 0 0 0 0 0 0 0 0 0 0 0 0 0 0 0 0 0 0 0 0 0 0 0 -21 -13 -8 0 -5 0 0 0 0 0 0 0 0 0 0 0 0 0 0 0 0 0 0 0 0 0 0 0 0
0 0 0 0 0 0 0 0 0 0 0 0 0 0 0 0 0 0 0 0 0 0 0 0 0 0 0 0 0 0 0 0 0 0 0 0 0 0 0 0 0 0 0 0 0 0 0 0 0 0 0 0 0 0
0 0 0 0 -1 0 0 0 0 0 0 0 0 0 0 -1 0 0 0 0 0 0 0 0 0 0 0 0 0 0 0 0 0 0 0 0 0 0 0 0 0 0 0 0 0 0 0 0 0 0 0 0 0 0
0 0 0 0 0 0 0 0 0 0 0 0 0 0 0 0 0 0 0 0 0 0 0 0 -1 -2 0 0 0 0 0 0 0 0 0 0 0 0 0 0 0 0 0 0 0 0 0 0 0 0 0 0 0 0
-1 0 0 0 0 0 0 0 0 0 0 0 0 -1 0 0 0 0 0 0 0 0 0 0 0 0 0 0 0 0 0 0 0 0 0 0 0 0 0 0 0 0 0 0 0 0 0 0 0 0 0 0 0 0
0 -1 0 0 0 0 0 0 0 0 0 0 0 0 0 0 0 0 0 0 0 0 0 0 0 0 0 0 0 0 0 0 0 0 0 0 0 0 0 0 0 0 0 0 0 0 0 0 0 0 0 0 0 0
0 0 0 0 0 0 0 0 0 0 0 0 0 0 0 0 0 0 0 0 0 0 0 0 0 0 0 0 0 0 0 0 0 0 0 0 0 0 0 0 0 0 0 0 0 0 0 0 0 0 0 0 0 0
0 0 0 0 0 0 0 0 0 0 0 0 0 0 0 0 0 0 0 0 0 0 0 0 0 0 0 0 0 0 0 0 0 0 0 0 0 0 0 0 0 0 0 0 0 0 0 0 0 0 0 0 0 0
0 0 0 0 0 0 0 0 0 0 0 0 0 0 0 0 0 0 0 0 0 0 0 0 0 0 0 0 0 0 0 0 0 0 0 0 0 0 0 0 0 0 0 0 0 0 0 0 0 0 0 0 0 0
0 0 0 0 0 0 0 0 0 0 0 0 0 0 0 0 0 0 0 0 0 0 0 0 0 0 0 0 0 0 0 0 0 0 0 0 0 0 0 0 0 0 0 0 0 0 0 0 0 0 0 0 0 0
0 0 0 0 0 0 0 0 0 0 0 0 0 0 0 0 0 0 0 0 0 0 0 0 0 0 0 0 0 0 0 0 0 0 0 0 0 0 0 0 0 0 0 0 0 0 0 0 0 0 0 0 0 0
0 0 0 0 0 0 0 0 0 0 0 0 0 0 0 0 0 0 0 0 0 0 0 0 0 0 0 0 0 0 0 0 0 0 0 0 0 0 0 0 0 0 0 0 0 0 0 0 0 0 0 0 0 0
0 0 0 0 0 0 0 0 0 0 0 0 0 0 0 0 0 0 0 0 0 0 0 0 0 0 0 0 0 0 0 0 0 0 0 0 0 0 0 0 0 0 0 0 0 0 0 0 0 0 0 0 0 0
0 0 0 0 0 0 0 0 0 0 0 0 0 0 0 0 0 0 0 0 0 0 0 0 0 0 0 0 0 0 0 0 0 0 0 0 0 0 0 0 0 0 0 0 0 0 0 0 0 0 0 0 0 0
0 0 0 0 0 0 0 0 0 0 0 0 0 0 0 0 0 0 0 0 0 0 0 0 0 0 0 0 0 0 0 0 0 0 0 0 0 0 0 0 0 0 0 0 0 0 0 0 0 0 0 0 0 0
0 0 0 0 0 0 0 0 0 0 0 0 0 0 0 0 0 0 0 0 0 0 0 0 0 0 0 0 0 0 0 0 0 0 0 0 0 0 0 0 0 0 0 0 0 -1 0 0 0 0 0 0 0 0
0 0 0 0 0 0 0 0 0 0 0 0 0 0 0 0 0 0 0 0 0 0 0 0 0 0 0 0 0 0 0 0 0 0 0 0 0 0 0 0 0 0 0 0 0 0 0 0 0 0 0 0 0 0
0 0 0 0 0 0 0 0 0 0 0 0 0 0 0 0 0 0 0 0 0 0 0 0 0 0 0 0 0 0 0 0 0 0 0 0 0 0 0 0 0 0 0 0 0 0 0 0 0 0 0 0 0 0
0 0 0 0 0 0 0 0 0 0 0 0 0 0 0 0 0 0 0 0 0 0 0 0 0 0 0 0 0 0 0 0 0 0 0 0 0 0 0 0 0 0 0 0 0 0 0 0 0 0 0 0 0 0
0 0 0 0 0 0 0 0 0 0 0 0 0 0 0 0 0 0 0 0 0 0 0 0 0 0 0 0 0 0 0 0 0 0 0 0 -1 -4 -1 0 0 0 0 0 0 0 0 0 0 0 0 0 0 0
Wind_Speed
21 23 25 27 28 29 29 27 26 27 29 28 27 24 21 16 23 21 23 17 17 18 22 19 18 15 12 10 11 11 12 14 13 17 18 18 20 19 19 13 11 19 19 22 23 21 20 14 17 5 6 15 18 16
21 23 26 27 28 28 30 27 26 27 27 27 26 24 22 19 20 22 21 18 19 19 19 18 19 17 14 14 11 11 15 12 12 15 18 19 20 20 20 20 16 20 18 18 22 20 20 21 19 18 17 18 16 15
18 23 26 28 28 29 30 27 27 27 27 27 25 23 22 18 23 23 23 19 18 20 21 19 18 19 17 15 14 13 18 15 17 16 18 20 23 19 22 22 20 22 20 22 18 18 20 18 18 19 18 19 15 14
19 22 27 29 29 29 30 27 26 26 27 27 25 24 21 13 25 26 24 20 19 19 16 15 14 16 17 16 14 15 16 15 17 18 21 23 23 19 21 22 23 22 18 23 26 25 21 17 18 18 18 17 18 15
20 22 27 29 29 29 29 27 25 26 26 26 24 21 15 8 26 26 26 26 23 17 18 18 19 16 16 15 16 15 12 16 18 21 21 23 20 23 24 26 28 25 26 26 26 22 21 22 15 14 15 16 16 15
18 22 27 28 28 29 31 28 24 22 24 24 20 18 8 23 25 23 23 21 24 21 16 15 16 16 15 15 17 17 17 15 17 18 20 21 23 22 23 23 24 26 27 26 29 20 21 13 12 12 13 14 14 14
18 25 27 27 27 28 30 28 22 17 21 21 16 15 12 24 27 26 21 17 15 17 16 16 16 15 15 16 19 19 13 13 14 18 21 22 23 22 25 27 27 26 28 28 24 17 21 11 11 11 12 13 13 14
18 28 27 26 26 27 28 27 3 9 15 16 15 14 18 23 22 22 20 24 19 17 16 16 16 17 14 18 19 14 14 13 11 20 20 21 18 18 22 22 23 23 25 24 23 22 20 13 10 10 10 10 10 11
16 25 25 25 25 25 26 22 13 1 7 11 17 15 20 20 20 17 15 18 21 17 16 17 17 17 16 18 16 16 14 14 12 19 19 18 16 18 19 23 24 24 23 22 20 17 14 13 9 6 6 8 8 10
21 24 25 24 24 24 24 21 16 7 9 18 17 18 20 19 16 18 15 15 18 21 20 19 18 18 17 18 18 18 15 16 17 14 16 15 17 20 22 24 26 27 27 26 24 22 16 14 6 4 4 6 7 8
24 25 24 23 23 22 22 20 18 11 17 20 22 21 18 17 17 17 17 17 17 19 19 15 8 19 18 20 19 18 18 17 16 16 15 15 14 18 22 24 25 26 27 29 30 22 18 16 5 3 4 5 6 8
25 23 23 23 22 21 21 20 19 15 16 19 17 18 17 18 18 19 19 18 18 19 15 14 16 15 11 16 17 18 18 17 16 17 16 16 16 21 22 22 23 23 23 24 19 15 15 10 5 3 4 5 6 7
22 23 23 23 22 21 20 20 19 16 17 22 20 19 13 2 10 18 17 19 18 15 15 15 17 16 16 14 17 17 18 19 18 17 15 15 19 22 22 22 22 22 21 19 18 18 13 9 8 5 6 4 6 7
24 23 23 24 22 20 20 19 18 15 12 9 10 11 12 11 15 13 18 18 17 14 14 15 16 16 16 17 17 18 17 17 19 18 16 17 20 20 20 21 21 20 19 19 17 16 13 7 7 6 4 3 4 5
24 22 24 25 20 19 19 18 17 15 12 9 8 7 7 14 6 12 16 16 16 15 15 16 17 17 17 19 18 17 18 19 17 17 16 20 21 21 21 21 21 21 20 20 19 17 15 12 9 8 6 3 2 2
16 20 20 18 17 18 18 17 16 15 14 12 12 11 12 7 6 4 8 9 18 17 17 17 19 20 21 20 20 19 19 20 16 15 18 21 22 23 24 24 24 24 23 22 21 20 18 15 12 9 7 4 2 1
13 18 14 18 18 18 18 16 16 14 13 14 15 15 14 14 11 6 6 8 16 15 11 14 17 17 19 21 21 18 20 17 16 19 20 23 24 25 26 27 27 27 26 25 23 21 18 15 11 9 7 6 3 2
16 14 15 17 18 17 17 17 16 15 13 16 17 17 15 16 14 12 11 11 10 12 14 14 16 14 19 25 24 20 18 18 20 21 25 27 27 26 28 29 29 28 28 27 25 24 19 14 12 10 7 5 4 2
14 15 16 17 17 17 17 18 17 17 18 18 18 17 16 17 17 15 13 14 14 12 13 13 5 7 11 16 15 13 18 23 26 28 30 31 27 31 33 32 31 31 30 29 27 25 22 19 16 12 8 6 5 5
14 18 14 15 17 17 18 18 17 19 20 19 18 17 17 18 18 18 16 14 12 13 14 13 13 14 13 10 13 17 19 21 25 32 34 29 33 36 36 35 34 34 33 31 29 26 24 22 19 15 12 11 8 8
14 16 15 17 19 18 19 18 19 19 20 20 18 18 20 18 19 19 17 13 13 16 18 15 14 13 14 13 14 17 19 22 26 29 33 35 33 34 35 36 36 36 35 35 33 30 26 25 20 17 15 15 14 12
18 14 18 19 20 21 21 20 19 19 20 21 20 19 20 21 20 18 19 17 19 18 18 18 16 13 14 17 16 16 18 21 23 26 28 31 34 35 35 35 35 36 37 36 35 35 32 28 24 20 16 14 12 11
14 17 19 20 22 22 23 19 21 20 21 20 20 22 22 22 22 18 20 21 22 20 16 16 14 15 15 17 18 19 19 20 24 27 29 31 33 34 35 35 35 36 36 35 34 36 34 31 25 22 18 15 13 12
17 19 20 21 21 22 21 21 21 21 21 22 23 24 22 20 19 22 24 21 20 19 15 13 13 14 17 19 20 21 21 21 24 27 29 32 35 35 34 36 36 35 35 35 35 35 33 29 26 24 21 18 15 13
20 22 21 22 23 23 24 23 22 22 22 21 22 23 21 18 21 24 25 24 22 18 15 12 12 13 17 22 24 24 22 22 27 32 31 29 33 36 37 35 35 33 32 36 35 33 32 28 25 22 22 21 20 18
25 21 21 20 22 23 22 23 22 22 21 20 22 20 19 20 23 24 22 21 19 15 10 8 10 16 20 20 25 26 26 24 27 31 33 30 30 32 36 39 40 38 30 31 34 34 31 29 27 25 24 22 21 19
27 24 21 21 20 20 22 22 19 20 20 20 20 18 18 21 22 22 20 17 15 14 11 10 12 16 21 24 24 23 24 27 28 30 32 32 31 30 31 34 35 33 31 33 34 34 33 30 28 27 27 24 22 21
25 20 23 21 21 20 22 21 22 23 21 16 14 18 20 19 22 20 19 18 16 16 16 16 17 19 22 24 25 26 29 29 32 34 33 31 29 28 26 26 27 29 31 31 32 32 33 32 30 28 27 26 24 22
25 19 19 23 23 23 24 22 23 19 16 13 18 21 22 22 22 21 20 19 17 17 18 20 22 23 24 24 25 25 28 30 34 38 38 37 37 32 28 27 27 28 28 30 33 32 31 30 29 27 27 25 24 21
23 17 23 23 25 26 23 18 20 19 19 20 23 26 26 26 24 22 21 20 20 20 21 23 23 23 24 24 26 28 28 27 26 28 33 34 33 31 30 29 31 32 32 32 32 31 30 27 24 23 22 24 24 22
16 21 24 25 27 23 21 20 21 22 23 25 25 28 30 30 29 25 20 19 19 20 20 20 20 18 19 22 25 30 33 29 26 25 26 27 27 27 26 24 25 26 28 30 30 29 27 22 18 19 23 29 26 23
23 26 25 26 26 21 20 20 23 25 26 26 26 25 26 25 26 23 18 16 16 15 15 14 15 18 18 20 23 24 25 28 28 28 27 25 23 20 17 18 21 19 18 22 27 26 19 16 16 24 30 28 23 20
22 24 24 22 21 21 21 21 22 24 23 24 23 21 20 20 20 21 18 13 13 14 12 13 15 18 20 22 23 24 27 29 29 29 28 23 19 27 13 8 11 15 18 22 17 15 13 13 23 28 25 22 24 22
Wind_Direction
328 327 323 319 324 325 327 344 353 356 355 0 3 6 9 9 293 279 267 289 288 275 258 256 260 275 294 319 326 334 329 313 312 284 274 275 270 273 273 288 292 252 247 240 233 249 240 268 271 151 84 39 35 60
330 321 314 315 318 323 325 342 348 351 353 356 358 360 360 358 302 276 263 280 281 268 261 268 262 274 293 298 324 328 299 306 311 298 287 286 283 277 271 266 273 253 262 254 235 231 240 299 273 355 20 29 52 64
327 321 307 307 317 314 322 341 345 349 351 353 355 356 354 354 290 263 259 269 262 249 237 247 253 253 267 293 310 306 277 290 290 304 298 291 279 288 265 265 265 260 263 255 267 252 244 306 343 352 12 18 55 69
319 319 299 299 309 310 321 341 347 350 351 352 353 353 349 355 269 249 246 253 255 247 259 262 275 270 293 303 320 305 290 300 303 302 291 285 275 289 273 267 264 262 271 258 244 251 294 324 338 0 6 21 29 48
310 309 296 292 305 304 323 340 351 353 355 354 355 355 357 241 249 238 236 232 230 241 250 255 267 287 307 320 297 310 316 307 307 294 288 279 289 281 277 267 259 262 259 255 249 277 298 293 6 11 12 9 24 39
315 302 290 290 303 296 313 341 355 3 1 1 3 4 32 225 227 220 214 224 218 223 254 270 276 293 309 311 297 301 302 326 313 300 294 290 279 280 274 270 265 260 259 263 256 302 309 358 16 16 12 9 16 31
308 291 280 288 295 292 304 339 5 15 12 15 21 39 127 205 203 203 213 224 232 236 245 262 276 302 302 296 271 287 342 343 324 303 295 283 277 269 269 263 261 266 261 268 283 313 307 354 8 32 17 8 12 24
299 268 275 287 287 287 307 310 20 27 32 41 69 113 181 186 198 211 223 212 225 241 256 260 269 274 293 266 268 339 352 348 8 291 292 283 290 279 271 272 269 276 269 278 285 297 307 338 356 12 22 29 31 31
297 270 275 280 276 288 303 281 267 350 68 97 134 179 176 191 198 212 224 227 222 249 270 268 265 265 271 273 297 318 13 23 43 292 292 292 292 277 279 276 271 276 280 282 299 314 326 336 353 21 41 44 54 46
280 267 267 276 272 287 296 282 274 256 144 130 188 188 190 199 212 212 231 242 242 234 249 263 232 266 284 287 288 301 3 10 2 14 329 305 298 283 288 281 281 280 276 272 281 296 323 336 360 41 56 50 56 66
260 261 264 270 275 291 290 283 283 255 143 135 127 182 210 223 228 237 241 245 259 263 264 309 24 275 304 283 284 304 313 348 16 314 312 282 295 281 289 288 288 284 277 271 271 295 316 331 3 65 35 36 62 74
253 261 263 265 276 287 291 287 295 300 127 147 177 235 235 243 250 249 250 266 274 273 304 311 297 314 285 322 297 300 300 318 332 310 300 276 303 290 294 290 293 297 295 295 302 308 323 342 1 20 40 75 77 73
260 263 266 266 280 286 293 291 296 285 220 156 138 135 122 78 147 269 269 271 278 307 305 297 293 313 320 339 308 311 301 292 310 304 296 292 297 304 305 305 307 312 316 311 301 296 328 35 41 67 90 62 89 90
261 264 270 270 280 286 292 297 302 307 301 24 68 106 115 114 149 289 274 281 290 304 306 300 297 308 310 302 304 308 315 318 295 287 291 291 299 300 306 309 310 306 308 308 306 310 333 2 357 360 9 50 83 94
262 269 272 274 283 289 292 302 301 308 312 351 8 60 91 143 34 301 286 286 291 294 299 299 297 305 306 297 304 308 308 301 303 297 307 301 300 303 307 312 315 313 309 306 308 308 311 318 330 330 337 14 54 91
286 277 278 286 289 288 295 300 299 301 308 317 320 331 336 17 101 39 331 313 289 290 297 300 295 295 289 295 296 298 302 299 309 318 314 312 314 316 317 316 315 314 312 310 307 303 304 310 317 322 325 322 311 183
310 284 299 291 290 295 295 300 302 306 312 309 307 301 309 320 337 15 68 328 301 302 303 310 303 302 304 299 294 304 302 307 312 310 316 314 311 313 318 321 320 318 318 319 319 323 325 326 329 325 318 313 304 280
300 306 303 300 296 297 296 297 296 300 308 297 302 303 300 306 313 323 329 327 334 313 307 312 313 311 301 292 292 303 307 308 308 309 309 310 309 313 314 313 314 316 315 314 314 315 320 327 327 324 323 317 308 282
312 312 305 303 306 302 293 291 292 296 292 295 299 304 300 297 294 302 312 311 312 327 331 331 17 350 325 317 323 328 312 303 300 302 304 306 309 308 307 307 309 310 309 310 310 310 310 310 312 314 311 303 287 275
308 305 316 310 304 297 293 292 295 290 286 292 295 297 298 299 292 293 300 307 315 316 315 320 318 325 335 347 336 327 322 320 315 303 303 306 303 302 302 302 301 301 303 305 306 307 307 306 303 301 296 291 281 268
307 308 312 307 296 293 293 291 289 289 288 287 294 294 293 299 291 290 295 300 306 306 308 316 319 325 332 338 338 333 328 323 316 311 306 305 310 306 305 301 299 298 296 295 295 297 299 299 301 298 293 288 283 278
294 308 297 299 293 290 286 288 289 290 286 288 292 293 293 289 294 295 292 293 297 303 308 313 316 322 326 327 332 338 336 330 326 322 318 314 309 308 307 307 307 301 293 291 290 288 289 290 291 291 289 286 281 275
299 296 295 293 288 284 285 292 284 288 289 293 292 286 289 290 291 300 299 294 295 303 310 313 317 321 325 328 330 334 337 335 330 325 321 318 314 311 309 306 305 302 299 297 291 286 286 285 283 282 281 280 276 270
294 287 289 287 281 285 287 285 285 285 287 286 287 288 292 294 297 290 289 297 302 309 312 312 316 319 323 325 326 329 334 335 331 327 325 321 316 313 313 307 305 302 299 296 293 288 286 282 277 274 272 269 267 260
280 280 284 283 278 279 276 280 282 282 287 288 289 286 290 294 290 290 290 296 303 306 309 314 316 320 320 322 323 327 334 333 329 324 325 325 320 315 312 310 307 304 302 297 293 290 285 280 275 270 267 264 262 257
267 274 276 281 279 277 278 282 281 281 285 288 287 296 295 291 291 291 295 303 306 311 316 320 320 319 320 323 323 327 330 333 330 325 325 326 324 319 314 309 305 302 304 299 293 289 285 280 272 267 264 261 256 253
261 269 275 276 281 283 280 281 288 286 288 290 293 290 292 292 291 293 300 308 313 319 326 327 326 323 323 324 327 330 331 329 327 325 326 325 322 318 314 311 308 306 304 297 292 287 282 279 273 266 262 260 253 249
265 268 266 269 276 282 281 281 280 283 287 296 300 290 292 296 296 298 303 313 315 323 327 328 327 326 325 326 328 329 328 328 327 326 326 325 323 321 318 315 311 307 302 297 293 287 280 275 271 264 259 255 252 247
261 265 267 267 272 273 273 279 281 291 299 298 294 290 294 297 297 302 310 316 323 322 321 321 323 327 327 330 331 330 329 329 328 325 325 325 325 326 325 320 315 310 304 298 291 286 280 273 269 262 255 251 246 242
259 259 264 266 267 268 275 283 291 295 293 291 292 291 291 292 298 307 312 316 318 319 320 320 324 327 328 331 332 332 333 332 330 328 327 327 327 326 324 319 311 304 299 293 288 283 277 270 267 257 247 240 238 231
258 259 263 265 267 274 279 287 290 291 290 290 290 287 287 293 300 308 313 315 317 320 321 323 328 333 335 336 336 334 334 339 339 335 330 328 327 326 323 320 316 307 297 288 280 277 272 265 256 243 236 232 231 222
257 255 259 263 269 280 285 285 283 283 286 287 289 295 300 306 308 317 326 331 330 330 333 338 342 343 346 344 343 342 340 340 339 337 335 333 331 329 328 325 317 315 310 292 275 269 267 254 243 234 227 227 222 211
263 259 260 267 274 275 274 279 283 285 289 292 300 306 310 314 318 319 331 342 342 345 352 354 353 351 349 349 348 348 348 347 347 346 343 341 341 335 343 344 336 321 303 284 281 267 255 240 230 223 223 219 210 201